This is the latest recevied weather packets stored in our database for station/object OH6GKW. If no packets are shown the sender has not sent any weather packets the latest 10 day(s).
| Time | Temp. | Humidity | Pressure | Rain* | Wind** | Luminosity | Snow |
|---|---|---|---|---|---|---|---|
| 1777952013 | 2.22° C | 98% | 993.9 hPa | 0.51 mm | - | 42 W/m² | - |
| 1777951734 | 2.22° C | 98% | 994 hPa | 0.51 mm | - | 37 W/m² | - |
| 1777951427 | 2.22° C | 98% | 994 hPa | 0.51 mm | - | 39 W/m² | - |
| 1777951120 | 1.67° C | 98% | 994 hPa | 0.51 mm | - | 46 W/m² | - |
| 1777950813 | 1.67° C | 98% | 994.1 hPa | 0.51 mm | - | 39 W/m² | - |
| 1777950526 | 1.67° C | 98% | 994.1 hPa | 0.51 mm | - | 33 W/m² | - |
| 1777950217 | 1.67° C | 98% | 994.1 hPa | 0.51 mm | - | 32 W/m² | - |
| 1777949927 | 1.11° C | 98% | 994.2 hPa | 0.51 mm | - | 35 W/m² | - |
| 1777949619 | 1.11° C | 98% | 994.2 hPa | 0.51 mm | - | 28 W/m² | - |
| 1777949315 | 1.11° C | 98% | 994.2 hPa | 0.51 mm | - | 30 W/m² | - |
| 1777949012 | 1.11° C | 98% | 994.2 hPa | 0.51 mm | - | 21 W/m² | - |
| 1777948735 | 1.11° C | 98% | 994.2 hPa | 0.51 mm | - | 18 W/m² | - |
| 1777948430 | 1.11° C | 98% | 994.2 hPa | 0.51 mm | - | 16 W/m² | - |
| 1777948120 | 0.56° C | 98% | 993.9 hPa | 0.51 mm | - | 18 W/m² | - |
| 1777947813 | 0.56° C | 98% | 993.9 hPa | 0.51 mm | - | 9 W/m² | - |
| 1777947509 | 0.56° C | 98% | 993.9 hPa | 0.51 mm | - | 7 W/m² | - |
| 1777947221 | 0.56° C | 98% | 994 hPa | 0.51 mm | - | 5 W/m² | - |
| 1777946912 | 1.11° C | 98% | 994 hPa | 0.51 mm | - | 5 W/m² | - |
| 1777946627 | 1.11° C | 98% | 994 hPa | 0.51 mm | - | 0 W/m² | - |
| 1777946316 | 1.11° C | 98% | 993.9 hPa | 0.51 mm | - | 0 W/m² | - |
| 1777946012 | 1.11° C | 98% | 993.9 hPa | 0.51 mm | - | 0 W/m² | - |
| 1777945735 | 1.11° C | 98% | 993.9 hPa | 0.51 mm | - | 0 W/m² | - |
| 1777945431 | 1.67° C | 98% | 994 hPa | 0.51 mm | - | 0 W/m² | - |
| 1777945123 | 1.67° C | 98% | 994 hPa | 0.51 mm | - | 0 W/m² | - |
| 1777944818 | 1.67° C | 98% | 994 hPa | 0.51 mm | - | 0 W/m² | - |
* Rain since midnight (hover to see other rain measurements)
** Current wind speed in m/s (hover to see current wind gust speed)